This is the latest recevied weather packets stored in our database for station/object DC4XK-10. If no packets are shown the sender has not sent any weather packets the latest 10 day(s).
| Time | Temp. | Humidity | Pressure | Rain* | Wind** | Luminosity | Snow |
|---|---|---|---|---|---|---|---|
| 1777612731 | 7.22° C | 99% | 1027.8 hPa | 0 mm | 0 m/s | - | - |
| 1777612131 | 6.11° C | 99% | 1028.2 hPa | 0 mm | 0 m/s | - | - |
| 1777611530 | 6.11° C | 99% | 1028.1 hPa | 0 mm | 0 m/s | - | - |
| 1777610930 | 5.56° C | 99% | 1028 hPa | 0 mm | 0 m/s | - | - |
| 1777610333 | 4.44° C | 99% | 1027.8 hPa | 0 mm | 0 m/s | - | - |
| 1777609731 | 3.89° C | 99% | 1027.9 hPa | 0 mm | 0 m/s | - | - |
| 1777609130 | 3.89° C | 99% | 1027.9 hPa | 0 mm | 0 m/s | - | - |
| 1777608531 | 3.33° C | 99% | 1028 hPa | 0 mm | 0 m/s | - | - |
| 1777607930 | 3.33° C | 99% | 1027.8 hPa | 0 mm | 0 m/s | - | - |
| 1777607330 | 5.56° C | 99% | 1027.9 hPa | 0 mm | 0 m/s | - | - |
| 1777606732 | 5.56° C | 99% | 1027.9 hPa | 0 mm | 0 m/s | - | - |
| 1777606131 | 5° C | 99% | 1027.9 hPa | 0 mm | 0 m/s | - | - |
| 1777605530 | 5.56° C | 99% | 1027.9 hPa | 0 mm | 0 m/s | - | - |
| 1777604933 | 6.11° C | 99% | 1028 hPa | 0 mm | 0 m/s | - | - |
| 1777604330 | 5.56° C | 99% | 1027.9 hPa | 0 mm | 0 m/s | - | - |
| 1777603730 | 6.11° C | 98% | 1028 hPa | 0 mm | 0 m/s | - | - |
| 1777602530 | 6.67° C | 97% | 1028 hPa | 0 mm | 0 m/s | - | - |
| 1777601931 | 6.67° C | 97% | 1028 hPa | 0 mm | 0 m/s | - | - |
| 1777601331 | 6.11° C | 97% | 1028.1 hPa | 0 mm | 0 m/s | - | - |
| 1777586930 | 7.78° C | 78% | 1028.3 hPa | 0 mm | 0 m/s | - | - |
| 1777586331 | 7.78° C | 78% | 1028.4 hPa | 0 mm | 0 m/s | - | - |
| 1777585731 | 7.78° C | 78% | 1028.3 hPa | 0 mm | 0 m/s | - | - |
| 1777584531 | 8.33° C | 77% | 1028.2 hPa | 0 mm | 0 m/s | - | - |
| 1777583930 | 8.89° C | 74% | 1028.3 hPa | 0 mm | 0 m/s | - | - |
| 1777583331 | 8.89° C | 74% | 1028.4 hPa | 0 mm | 0 m/s | - | - |
* Rain latest hour (hover to see other rain measurements)
** Current wind speed in m/s (hover to see current wind gust speed)